Hurricane Symbol View the latest observations near Atlantic Potential Tropical Cyclone One.

Station 46082 (LLNR 1097) - Cape Suckling - 35 NM SE of Kayak Is, AK Image indicating link to RSS feed of recent meteorological observations for station 46082


Conditions at 46082 as of
(2:00 am AKDT)
1000 GMT on 06/19/2024:
     

Click on the graph icon in the table below to see a time series plot of the last five days of that observation.

5-day plot - Wind Direction Wind Direction (WDIR): NW ( 320 deg true )
5-day plot - Wind Speed Wind Speed (WSPD): 3.9 kts
5-day plot - Wind Gust Wind Gust (GST): 7.8 kts
5-day plot - Atmospheric Pressure Atmospheric Pressure (PRES):30.08 in
5-day plot - Pressure Tendency Pressure Tendency (PTDY):+0.02 in ( Rising )
5-day plot - Air Temperature Air Temperature (ATMP): 48.9 °F
5-day plot - Water Temperature Water Temperature (WTMP): 52.3 °F
5-day plot - Dew Point Dew Point (DEWP): 46.2 °F
5-day plot - Wind Chill Wind Chill (CHILL): 47.3 °F
5-day plot - Wind Speed at 10 Meters Wind Speed at 10 meters (WSPD10M): 3.9 kts
5-day plot - Wind Speed at 20 Meters Wind Speed at 20 meters (WSPD20M): 3.9 kts
5-day plot -  Wind Speed, Wind Gust and Atmospheric Pressure Combined plot of Wind Speed, Gust, and Air Pressure
Supplemental Measurements
Highest 1-minute Wind Speed
Time (AKDT)5-day plot - 1-Minute Wind Speed WSPD 5-day plot - 1-Minute Wind Direction WDIR
1:55 am 7.8 kts-
Previous observations
TIME
(AKDT)
5-day plot - Wind Direction
WDIR
 
5-day plot - Wind Speed
WSPD
kts
5-day plot - Wind Gust
GST
kts
5-day plot - Wave Height
WVHT
ft
5-day plot - Dominant Wave Period
DPD
sec
5-day plot - Average Wave Period
APD
sec
5-day plot - Mean Wave Direction
MWD
 
5-day plot - Atmospheric Pressure
PRES
in
5-day plot - Pressure Tendency
PTDY
in
5-day plot - Air Temperature
ATMP
°F
5-day plot - Water Temperature
WTMP
°F
5-day plot - Dew Point
DEWP
°F
5-day plot - Salinity
SAL
psu
5-day plot - Visibility
VIS
nmi
5-day plot - Tide (above MLLW)
TIDE
ft
2024-06-19 01:50 am NW 5.8 7.8 3.6 166.3 S30.08- 48.9 52.3 46.2---
2024-06-19 01:40 amWNW 5.8 9.7 3.6-6.3 S30.07- 48.9 52.3 46.2---
2024-06-19 01:30 am W 5.8 9.7----30.07- 48.9 52.3 46.4---
2024-06-19 01:20 amWNW 5.8 9.7 4.3 166.6 S30.07- 48.9 52.3 46.4---
2024-06-19 01:10 am W 5.8 9.7 4.3-6.6 S30.07- 48.9 52.3 46.2---
2024-06-19 01:00 am W 5.8 7.8----30.07+0.00 48.9 52.3 46.2---
2024-06-19 12:50 am W 5.8 9.7 4.3 166.4SSW30.07- 48.9 52.3 46.2---
2024-06-19 12:40 am W 7.8 11.7 4.3-6.4SSW30.07- 48.9 52.3 46.2---
2024-06-19 12:30 am W 7.8 11.7----30.07- 48.7 52.3 45.9---
2024-06-19 12:20 am W 7.8 11.7 4.3 166.4SSW30.07- 48.9 52.3 46.2---
2024-06-19 12:10 am W 7.8 9.7 4.3-6.4SSW30.07- 48.9 52.3 46.2---
2024-06-19 12:00 am W 7.8 11.7----30.06+0.00 49.1 52.3 46.4---
2024-06-18 11:50 pm W 7.8 11.7 4.3 166.3 S30.06- 49.1 52.3 46.4---
2024-06-18 11:40 pm W 7.8 11.7 4.3-6.3 S30.06- 49.1 52.3 46.4---
2024-06-18 11:30 pm W 7.8 11.7----30.06- 49.1 52.3 46.4---
2024-06-18 11:20 pm W 7.8 11.7 3.9 166.0SSW30.06- 49.1 52.3 46.4---
2024-06-18 11:10 pm W 9.7 11.7 3.9-6.0SSW30.06- 49.1 52.3 46.4---
2024-06-18 11:00 pm W 9.7 13.6----30.06-0.01 49.1 52.3 46.4---
2024-06-18 10:50 pm W 9.7 13.6 4.3 165.9SSE30.06- 49.1 52.3 46.4---
2024-06-18 10:40 pm W 9.7 11.7 4.3-5.9SSE30.06- 48.9 52.3 46.2---
2024-06-18 10:30 pm W 9.7 13.6----30.06- 48.9 52.3 46.4---
2024-06-18 10:20 pm W 11.7 13.6 4.3 165.9 S30.06- 48.9 52.3 46.2---
2024-06-18 10:10 pm W 11.7 13.6 4.3-5.9 S30.06- 48.9 52.3 46.2---
2024-06-18 10:00 pm W 11.7 13.6----30.06-0.01 48.9 52.3 45.9---
2024-06-18 09:50 pm W 11.7 15.5 3.9 166.0SSE30.06- 48.7 52.3 45.7---
2024-06-18 09:40 pm W 11.7 15.5----30.06- 48.6 52.3 45.5---
2024-06-18 09:30 pm W 11.7 17.5----30.06- 48.6 52.3 45.5---
2024-06-18 09:20 pm W 11.7 17.5 3.9 165.6SSW30.06- 48.7 52.3 45.7---
2024-06-18 09:10 pm W 13.6 15.5 3.9-5.6SSW30.06- 48.7 52.3 45.9---
2024-06-18 09:00 pm W 13.6 15.5----30.06-0.02 48.9 52.3 46.0---
2024-06-18 08:50 pm W 13.6 17.5 4.3 166.1SSW30.07- 48.9 52.3 46.0---
2024-06-18 08:40 pm W 11.7 17.5----30.07- 48.7 52.3 45.7---
2024-06-18 08:30 pm W 11.7 15.5----30.07- 48.9 52.3 46.0---
2024-06-18 08:20 pm W 13.6 17.5 3.9 166.0 S30.07- 48.7 52.5 45.7---
2024-06-18 08:10 pm W 11.7 15.5 3.9-6.0 S30.07- 48.9 52.3 45.9---
2024-06-18 08:00 pm W 11.7 15.5----30.08-0.03 48.9 52.3 45.9---
2024-06-18 07:50 pm W 11.7 15.5 3.9 165.7 S30.08- 48.9 52.5 45.7---
2024-06-18 07:40 pm W 11.7 15.5 3.9-5.7 S30.08- 49.1 52.5 46.0---
2024-06-18 07:30 pm W 11.7 13.6----30.08- 49.1 52.5 45.9---
2024-06-18 07:20 pm W 11.7 15.5 3.9 165.8 S30.08- 49.3 52.5 46.2---
2024-06-18 07:10 pm W 11.7 15.5 3.9-5.8 S30.08- 49.5 52.5 46.6---
2024-06-18 07:00 pm W 11.7 17.5----30.08-0.02 49.6 52.5 46.8---
2024-06-18 06:50 pm W 11.7 13.6 3.9 165.7 S30.08- 49.8 52.5 47.1---
2024-06-18 06:40 pm W 11.7 15.5----30.08- 49.8 52.5 47.1---
2024-06-18 06:30 pm W 11.7 15.5----30.09- 49.8 52.5 47.1---
2024-06-18 06:20 pm W 11.7 15.5 4.6 176.2 S30.09- 49.8 52.5 46.9---
2024-06-18 06:10 pm W 11.7 13.6 4.6-6.2 S30.09- 49.8 52.5 47.1---
2024-06-18 06:00 pm W 11.7 13.6----30.09-0.01 49.8 52.5 46.9---
2024-06-18 05:50 pm W 11.7 15.5 4.6 176.1SSE30.09- 50.0 52.5 47.1---
2024-06-18 05:40 pm W 11.7 13.6----30.10- 50.0 52.5 47.1---
2024-06-18 05:30 pm W 11.7 13.6----30.10- 50.0 52.5 47.1---
2024-06-18 05:20 pm W 11.7 13.6 4.3 175.6 S30.10- 50.0 52.5 47.3---
2024-06-18 05:10 pm W 11.7 15.5 4.3-5.6 S30.10- 50.0 52.5 47.3---
2024-06-18 05:00 pm W 11.7 13.6----30.10+0.00 50.2 52.5 47.5---
2024-06-18 04:50 pm W 11.7 15.5 4.3 175.8 S30.10- 50.2 52.5 47.3---
2024-06-18 04:40 pm W 11.7 15.5 4.3-5.8 S30.10- 50.0 52.5 47.1---
2024-06-18 04:30 pm W 11.7 13.6----30.10- 50.0 52.5 47.5---
2024-06-18 04:20 pm W 11.7 15.5 4.6 175.7SSW30.10- 50.0 52.5 47.7---
2024-06-18 04:10 pm W 11.7 15.5 4.6-5.7SSW30.10- 50.0 52.3 47.7---
2024-06-18 04:00 pm W 11.7 15.5----30.10-0.01 49.8 52.3 47.5---
2024-06-18 03:50 pm W 13.6 15.5 4.6 175.9SSW30.10- 49.8 52.3 47.5---
2024-06-18 03:40 pm W 13.6 15.5 4.6-5.9SSW30.10- 49.8 52.3 47.7---
2024-06-18 03:10 pm W 13.6 15.5 4.6-6.0 S30.10- 49.6 52.3 47.7---
2024-06-18 03:00 pm W 13.6 15.5----30.10+0.00 49.6 52.3 47.7---
2024-06-18 02:50 pm W 13.6 15.5 4.3 175.7WSW30.10- 49.6 52.3 47.7---
2024-06-18 02:40 pm W 13.6 15.5----30.10- 49.6 52.3 47.7---
2024-06-18 02:30 pm W 13.6 15.5----30.10- 49.5 52.3 47.5---
2024-06-18 02:20 pm W 11.7 15.5 4.3 65.5WSW30.10- 49.6 52.3 47.8---
2024-06-18 02:10 pm W 11.7 15.5 4.3-5.5WSW30.10- 49.5 52.3 47.7---
2024-06-18 02:00 pm W 13.6 15.5----30.10+0.00 49.3 52.3 47.7---
2024-06-18 01:50 pm W 11.7 15.5 4.6 175.8SSE30.11- 49.3 52.3 47.7---
2024-06-18 01:40 pm W 11.7 15.5 4.6-5.8SSE30.11- 49.5 52.3 47.8---
2024-06-18 01:30 pm W 11.7 15.5----30.10- 49.5 52.3 47.7---
2024-06-18 01:20 pm W 11.7 15.5 4.6 176.2 S30.11- 49.5 52.3 47.5---
2024-06-18 01:10 pm W 11.7 13.6 4.6-6.2 S30.11- 49.5 52.3 47.5---
2024-06-18 01:00 pm W 11.7 13.6----30.11+0.01 49.3 52.2 47.1---
2024-06-18 12:50 pm W 11.7 13.6 4.6 176.0 S30.11- 49.3 52.2 47.1---
2024-06-18 12:40 pm W 9.7 13.6 4.6-6.0 S30.11- 49.3 52.2 47.1---
2024-06-18 12:30 pm W 11.7 13.6----30.11- 49.1 52.2 46.8---
2024-06-18 12:20 pm W 11.7 13.6 4.3 176.0SSW30.11- 49.1 52.2 46.4---
2024-06-18 12:10 pm W 11.7 13.6 4.3-6.0SSW30.10- 49.1 52.2 46.4---
2024-06-18 12:00 pm W 11.7 13.6----30.10+0.01 49.1 52.2 46.4---
2024-06-18 11:50 amWNW 9.7 13.6 4.6 175.8 S30.11- 48.9 52.2 45.7---
2024-06-18 11:40 am W 9.7 13.6 4.6-5.8 S30.10- 48.7 52.2 45.5---
2024-06-18 11:30 am W 11.7 15.5----30.10- 48.7 52.2 45.5---
2024-06-18 11:20 am W 13.6 15.5 4.6 175.8 SW30.10- 48.9 52.2 46.0---
2024-06-18 11:10 am W 11.7 15.5 4.6-5.8 SW30.10- 48.9 52.2 46.0---
2024-06-18 11:00 am W 11.7 15.5----30.10+0.02 48.7 52.2 45.7---
2024-06-18 10:50 am W 11.7 17.5 4.3 175.8 SW30.10- 48.7 52.2 45.9---
2024-06-18 10:40 am W 11.7 15.5 4.3-5.8 SW30.10- 48.7 52.2 46.2---
2024-06-18 10:30 am W 13.6 15.5----30.10- 48.7 52.2 46.4---
2024-06-18 10:20 am W 11.7 15.5 4.6 65.8 SW30.10- 48.6 52.2 46.0---
2024-06-18 10:10 am W 13.6 17.5 4.6-5.8 SW30.10- 48.6 52.2 46.2---
2024-06-18 10:00 am W 11.7 15.5----30.09+0.01 48.6 52.2 46.4---
2024-06-18 09:50 amWNW 11.7 13.6 4.3 95.7SSW30.10- 48.6 52.2 46.4---
2024-06-18 09:40 am W 11.7 13.6 4.3-5.7SSW30.09- 48.6 52.2 46.4---
2024-06-18 09:30 am W 11.7 15.5----30.10- 48.4 52.2 46.0---
2024-06-18 09:20 am W 11.7 15.5 4.6 176.0 S30.09- 48.6 52.2 46.6---
2024-06-18 09:10 amWNW 9.7 13.6 4.6-6.0 S30.10- 48.6 52.2 46.8---
2024-06-18 09:00 amWNW 11.7 15.5----30.09+0.01 48.4 52.2 46.6---
2024-06-18 08:50 am W 11.7 15.5 4.6 75.6WSW30.09- 48.4 52.2 46.9---
2024-06-18 08:40 am W 9.7 13.6 4.6-5.6WSW30.09- 48.6 52.2 47.1---
2024-06-18 08:30 am W 11.7 15.5----30.09- 48.6 52.2 47.1---
2024-06-18 08:20 am W 11.7 15.5 4.9 95.8SSW30.09- 48.4 52.2 47.1---
2024-06-18 08:10 am W 11.7 15.5 4.9-5.8SSW30.09- 48.4 52.2 47.1---
2024-06-18 08:00 am W 9.7 15.5----30.09+0.00 48.4 52.2 47.3---
2024-06-18 07:50 am W 11.7 15.5 4.9 146.0 S30.09- 48.4 52.2 47.3---
2024-06-18 07:40 am W 9.7 15.5 4.9-6.0 S30.08- 48.4 52.2 47.3---
2024-06-18 07:30 am W 11.7 13.6----30.08- 48.4 52.2 47.3---
2024-06-18 07:20 amWNW 11.7 15.5 4.9 176.0SSW30.08- 48.4 52.2 47.3---
2024-06-18 07:10 amWNW 9.7 13.6 4.9-6.0SSW30.08- 48.4 52.2 47.3---
2024-06-18 07:00 amWNW 11.7 15.5----30.09+0.00 48.2 52.2 47.1---
2024-06-18 06:50 am W 11.7 15.5 4.6 95.7 SW30.09- 48.4 52.2 47.5---
2024-06-18 06:40 am W 9.7 13.6----30.09- 48.2 52.2 47.3---
2024-06-18 06:30 am W 11.7 15.5----30.08- 48.2 52.2 47.5---
2024-06-18 06:20 amWNW 9.7 13.6 4.9 175.7 S30.08- 48.2 52.2 47.5---
2024-06-18 06:10 am W 11.7 15.5 4.9-5.7 S30.09- 48.2 52.2 47.5---
2024-06-18 06:00 am W 11.7 15.5----30.09+0.00 48.2 52.2 47.5---
2024-06-18 05:50 am W 11.7 15.5 4.9 95.7 SW30.09- 48.2 52.2 47.5---
2024-06-18 05:40 am W 11.7 15.5 4.9-5.7 SW30.08- 48.2 52.2 47.5---
2024-06-18 05:30 am W 13.6 15.5----30.09- 48.2 52.2 47.5---
2024-06-18 05:20 amWNW 11.7 13.6 5.2 96.0 SW30.09- 48.4 52.2 47.7---
2024-06-18 05:10 am W 11.7 17.5 5.2-6.0 SW30.09- 48.4 52.2 47.7---
2024-06-18 05:00 am W 11.7 17.5----30.09+0.01 48.4 52.2 47.7---
2024-06-18 04:50 am W 11.7 15.5 4.9 95.6SSW30.09- 48.4 52.2 47.7---
2024-06-18 04:40 am W 13.6 17.5----30.09- 48.2 52.2 47.5---
2024-06-18 04:30 am W 13.6 17.5----30.08- 48.2 52.2 47.5---
2024-06-18 04:20 am W 13.6 17.5 4.9 95.8SSW30.08- 48.2 52.2 47.7---
2024-06-18 04:10 am W 13.6 17.5 4.9-5.8SSW30.08- 48.2 52.2 47.7---
2024-06-18 04:00 am W 13.6 17.5----30.08+0.01 48.4 52.2 47.8---
2024-06-18 03:50 am W 13.6 17.5 4.6 65.5WSW30.08- 48.6 52.0 48.0---
2024-06-18 03:40 am W 13.6 19.4----30.08- 48.6 52.0 48.0---
2024-06-18 03:30 am W 11.7 17.5----30.08- 48.4 52.0 47.8---
2024-06-18 03:20 am W 13.6 17.5 5.2 65.7 SW30.08- 48.2 52.0 47.7---
2024-06-18 03:10 am W 13.6 17.5 5.2-5.7 SW30.08- 48.2 52.0 47.7---
2024-06-18 03:00 am W 13.6 17.5----30.08+0.01 48.4 52.0 47.8---
2024-06-18 02:50 am W 13.6 17.5 5.2 65.5 SW30.08- 48.4 52.0 47.8---
2024-06-18 02:40 am W 13.6 17.5 5.2-5.5 SW30.08- 48.4 52.0 47.8---
2024-06-18 02:30 am W 13.6 17.5----30.08- 48.2 52.0 47.7---
2024-06-18 02:20 am W 15.5 17.5 5.6 96.0 SW30.08- 48.4 52.0 47.8---
2024-06-18 02:10 am W 11.7 17.5 5.6-6.0 SW30.07- 48.4 52.0 47.8---
2024-06-18 02:00 am W 11.7 15.5----30.08+0.02 48.2 52.0 47.7---
2024-06-18 01:50 am W 11.7 15.5 4.9 95.9SSW30.07- 48.2 52.0 47.7---

Detailed Wave Summary
for 46082 as of (1:40 am AKDT)
0940 GMT on 06/19/2024:

These wave data are displayed in rounded times.

     

Click on the graph icon in the table below to see a time series plot of the last five days of that observation.

5-day plot - Significant Wave Height Significant Wave Height (WVHT): 3.6 ft
5-day plot - Swell Height Swell Height (SwH): 3.6 ft
5-day plot - Swell Period Swell Period (SwP): 16.0 sec
5-day plot - Swell Direction Swell Direction (SwD): S
5-day plot - Wind Wave Height Wind Wave Height (WWH): 1.3 ft
5-day plot - Wind Wave Period Wind Wave Period (WWP): 4.0 sec
5-day plot - Wind Wave Direction Wind Wave Direction (WWD):WSW
5-day plot - Wave Steepness Wave Steepness (STEEPNESS): SWELL
5-day plot - Average Wave Period Average Wave Period (APD): 6.3 sec
Previous observations
TIME
(AKDT)
5-day plot - Wave Height
WVHT
ft
5-day plot - Swell Height
SwH
ft
5-day plot - Swell Period
SwP
sec
5-day plot - Swell Direction
SwD
 
5-day plot - Wind Wave Height
WWH
ft
5-day plot - Wind Wave Period
WWP
sec
5-day plot - Wind Wave Direction
WWD
 
5-day plot - Wave Steepness
STEEPNESS
 
5-day plot - Average Wave Period
APD
sec
2024-06-19 01:10 am 4.3 3.9 16.0 S 1.3 3.7 WSW SWELL 6.6
2024-06-19 12:40 am 4.3 3.9 16.0SSW 1.3 3.8 WSW SWELL 6.4
2024-06-19 12:10 am 4.3 3.9 16.0SSW 1.3 3.7 WSW SWELL 6.4
2024-06-18 11:40 pm 4.3 3.9 16.0 S 1.3 4.0 WSW SWELL 6.3
2024-06-18 11:10 pm 3.9 3.6 16.0SSW 1.6 4.0 WSW SWELL 6.0
2024-06-18 10:40 pm 4.3 3.6 16.0SSE 2.0 5.0 SW SWELL 5.9
2024-06-18 10:10 pm 4.3 3.3 16.0 S 2.3 4.2 W SWELL 5.9
2024-06-18 09:40 pm 3.9 3.6 16.0SSE 2.0 4.0 WSW SWELL 6.0
2024-06-18 09:10 pm 3.9 3.0 16.0SSW 2.6 6.2 SW SWELL 5.6
2024-06-18 08:40 pm 4.3 3.6 16.0SSW 2.3 5.9 SW SWELL 6.1
2024-06-18 08:10 pm 3.9 3.3 16.0 S 2.3 5.6 WSW SWELL 6.0
2024-06-18 07:40 pm 3.9 3.0 16.0 S 2.6 5.9 SW SWELL 5.7
2024-06-18 07:10 pm 3.9 3.3 16.0 S 2.3 5.0 WSW SWELL 5.8
2024-06-18 06:40 pm 3.9 3.3 16.0 S 2.3 5.3 WSW SWELL 5.7
2024-06-18 06:10 pm 4.6 3.6 17.4 S 2.3 5.3 WSW SWELL 6.2
2024-06-18 05:40 pm 4.6 3.9 17.4SSE 2.3 4.5 WSW SWELL 6.1
2024-06-18 05:10 pm 4.3 3.6 17.4 S 2.6 4.8 WSW SWELL 5.6
2024-06-18 04:40 pm 4.3 3.6 17.4 S 2.3 4.5 WSW SWELL 5.8
2024-06-18 04:10 pm 4.6 3.3 17.4SSW 3.0 5.9 WSW SWELL 5.7
2024-06-18 03:40 pm 4.6 3.3 17.4SSW 3.0 6.2 WSW SWELL 5.9
2024-06-18 03:10 pm 4.6 3.3 17.4 S 3.3 5.9 WSW SWELL 6.0
2024-06-18 02:40 pm 4.3 3.3 17.4WSW 3.0 5.9 WSW SWELL 5.7
2024-06-18 02:10 pm 4.3 3.0 17.4SSW 3.0 5.9 WSW STEEP 5.5
2024-06-18 01:40 pm 4.6 3.6 17.4SSE 3.0 5.9 WSW SWELL 5.8
2024-06-18 01:10 pm 4.6 3.9 17.4 S 2.6 5.3 WSW SWELL 6.2
2024-06-18 12:40 pm 4.6 4.3 17.4 S 2.0 4.3 SW SWELL 6.0
2024-06-18 12:10 pm 4.3 3.9 17.4SSW 2.0 4.5 WSW SWELL 6.0
2024-06-18 11:40 am 4.6 3.9 17.4 S 2.3 3.8 WSW SWELL 5.8
2024-06-18 11:10 am 4.6 3.6 17.4 SW 2.6 4.0 WSW SWELL 5.8
2024-06-18 10:40 am 4.3 3.6 17.4 SW 2.6 4.5 WSW SWELL 5.8
2024-06-18 10:10 am 4.6 3.3 9.1SSW 3.0 6.2 SW STEEP 5.8
2024-06-18 09:40 am 4.3 3.6 9.1SSW 2.3 4.2 WSW SWELL 5.7
2024-06-18 09:10 am 4.6 3.9 17.4 S 2.0 4.5 SW SWELL 6.0
2024-06-18 08:40 am 4.6 4.3 6.7WSW 2.3 4.5 WSW STEEP 5.6
2024-06-18 08:10 am 4.9 3.9 9.1SSW 3.0 5.3 WSW SWELL 5.8
2024-06-18 07:40 am 4.9 4.6 13.8 S 2.0 4.0 WSW SWELL 6.0
2024-06-18 07:10 am 4.9 4.6 17.4SSW 2.0 3.8 WSW SWELL 6.0
2024-06-18 06:40 am 4.6 3.9 9.1 SW 2.3 4.8 SW SWELL 5.7
2024-06-18 06:10 am 4.9 3.9 17.4 S 3.0 4.8 WSW SWELL 5.7
2024-06-18 05:40 am 4.9 3.6 9.1 SW 3.3 5.9 WSW SWELL 5.7
2024-06-18 05:10 am 5.2 4.3 9.1 SW 3.0 5.6 WSW AVERAGE 6.0
2024-06-18 04:40 am 4.9 3.6 9.1SSW 3.3 5.3 WSW AVERAGE 5.6
2024-06-18 04:10 am 4.9 3.6 9.1SSW 3.6 5.6 SW AVERAGE 5.8
2024-06-18 03:40 am 4.6 2.6 10.0 SW 3.9 5.9 WSWVERY_STEEP 5.5
2024-06-18 03:10 am 5.2 3.6 8.3 SW 3.9 6.2 SW STEEP 5.7
2024-06-18 02:40 am 5.2 3.3 10.0SSW 3.9 6.2 SW STEEP 5.5
2024-06-18 02:10 am 5.6 4.3 9.1 SW 3.3 5.9 SW AVERAGE 6.0

Plot of wave energy versus frequency (and period)